DW9433 Weather Reports


Display with metric or nautical units.
time (UTC)temp
F
wind
direction
speed
MPH
gust
MPH
rain 1hr
in
rain 24hr
in
rain mn
in
humidity
%
barometer
mb
20260507200103 70 225 0.0 0.0 0.00 0.08 0.00 47 1015.9
20260507194559 69 209 0.0 1.0 0.00 0.09 0.00 50 1015.8
20260507193053 69 355 0.0 0.0 0.00 0.09 0.00 51 1016.0
20260507191553 68 24 0.0 6.0 0.00 0.09 0.00 49 1016.1
20260507190105 69 327 0.0 3.0 0.00 0.09 0.00 50 1016.3
20260507184550 69 39 0.0 4.0 0.00 0.09 0.00 50 1016.2
20260507183110 68 41 0.0 3.0 0.00 0.09 0.00 50 1016.4
20260507181546 67 16 0.0 4.0 0.00 0.09 0.00 54 1016.5
20260507180044 67 50 0.0 5.0 0.00 0.09 0.00 51 1016.7
20260507174543 66 13 0.0 3.0 0.00 0.09 0.00 56 1017.0
20260507173047 67 355 0.0 0.0 0.00 0.09 0.00 53 1017.1
20260507171538 66 336 0.0 0.0 0.00 0.09 0.00 54 1017.3
20260507170037 65 59 0.0 5.0 0.00 0.09 0.00 56 1017.3
20260507164545 65 17 0.0 5.0 0.00 0.14 0.00 57 1017.5
20260507163032 65 43 0.0 8.0 0.00 0.14 0.00 59 1017.7
20260507161542 64 355 0.0 6.0 0.00 0.14 0.00 63 1017.6
20260507160030 64 33 0.0 4.0 0.00 0.14 0.00 58 1017.8
20260507154528 64 355 0.0 6.0 0.00 0.22 0.00 60 1017.6
20260507153033 63 80 0.0 2.0 0.00 0.22 0.00 63 1017.5
20260507151525 63 12 0.0 0.0 0.00 0.22 0.00 65 1017.6
20260507150022 62 25 0.0 3.0 0.00 0.22 0.00 66 1017.8
20260507144520 61 12 0.0 0.0 0.00 0.36 0.00 71 1018.1
20260507143022 60 22 0.0 5.0 0.00 0.36 0.00 74 1017.8
20260507141518 60 11 0.0 3.0 0.00 0.36 0.00 79 1017.8
20260507140010 58 349 0.0 0.0 0.00 0.36 0.00 81 1017.8
20260507134507 58 28 0.0 0.0 0.00 0.39 0.00 80 1017.8
20260507133005 56 27 0.0 0.0 0.00 0.39 0.00 84 1017.6
20260507131606 55 26 0.0 3.0 0.00 0.39 0.00 87 1017.5
20260507130057 54 26 0.0 0.0 0.00 0.39 0.00 89 1017.5
20260507124603 53 26 0.0 0.0 0.00 0.39 0.00 90 1017.3
20260507123052 52 26 0.0 0.0 0.00 0.39 0.00 95 1017.1
20260507121552 51 26 0.0 0.0 0.00 0.39 0.00 96 1016.9
20260507120051 50 26 0.0 0.0 0.00 0.39 0.00 97 1016.4
20260507114604 49 26 0.0 0.0 0.00 0.39 0.00 96 1016.4
20260507113103 48 26 0.0 0.0 0.00 0.39 0.00 95 1016.2
20260507111546 48 26 0.0 0.0 0.00 0.39 0.00 95 1016.2
20260507110042 48 26 0.0 0.0 0.00 0.39 0.00 94 1016.2
20260507104543 49 26 0.0 0.0 0.00 0.60 0.00 95 1015.9
20260507103048 49 26 0.0 0.0 0.00 0.60 0.00 95 1016.2
20260507101537 49 26 0.0 0.0 0.00 0.60 0.00 94 1016.0
20260507100035 49 26 0.0 0.0 0.00 0.60 0.00 94 1016.0
20260507094535 49 26 0.0 0.0 0.00 0.72 0.00 94 1016.0
20260507093035 50 26 0.0 0.0 0.00 0.72 0.00 94 1015.9
20260507091535 50 26 0.0 0.0 0.00 0.72 0.00 94 1015.6
20260507090028 51 26 0.0 0.0 0.00 0.72 0.00 94 1015.6
20260507084539 51 26 0.0 0.0 0.00 1.12 0.00 94 1015.5
20260507083025 51 26 0.0 0.0 0.00 1.12 0.00 94 1015.2
20260507081534 52 26 0.0 0.0 0.00 1.12 0.00 94 1015.2
20260507080024 52 26 0.0 0.0 0.00 1.12 0.00 94 1015.5
20260507074523 52 26 0.0 0.0 0.00 1.23 0.00 94 1015.5
20260507073021 52 26 0.0 0.0 0.00 1.23 0.00 93 1015.6
20260507071520 52 26 0.0 0.0 0.00 1.23 0.00 94 1015.6
20260507070018 52 26 0.0 0.0 0.00 1.23 0.00 94 1015.6
20260507064518 52 26 0.0 0.0 0.00 1.48 0.00 94 1015.7
20260507063023 52 26 0.0 0.0 0.00 1.48 0.00 94 1015.4
20260507061517 52 26 0.0 0.0 0.00 1.48 0.00 93 1015.8
20260507060015 53 26 0.0 0.0 0.00 1.48 0.00 93 1015.6
20260507054514 53 26 0.0 0.0 0.00 1.48 0.00 94 1015.4
20260507053014 53 26 0.0 0.0 0.00 1.48 0.00 94 1015.4
20260507051512 53 26 0.0 0.0 0.00 1.48 0.00 94 1015.4
20260507050014 53 26 0.0 0.0 0.00 1.48 0.00 94 1015.0
20260507044509 53 26 0.0 0.0 0.00 1.48 1.48 94 1015.0
20260507043019 53 26 0.0 0.0 0.00 1.48 1.48 94 1015.4
20260507041507 53 26 0.0 0.0 0.00 1.48 1.48 94 1015.3
20260507040007 53 26 0.0 0.0 0.00 1.48 1.48 94 1015.3
20260507034510 53 26 0.0 0.0 0.00 1.48 1.48 94 1015.8
20260507033006 53 26 0.0 0.0 0.00 1.48 1.48 94 1015.9
20260507031504 53 26 0.0 0.0 0.00 1.48 1.48 93 1015.5
20260507030007 53 26 0.0 0.0 0.00 1.48 1.48 93 1015.2
20260507024502 53 26 0.0 0.0 0.00 1.48 1.48 93 1015.3
20260507023006 53 26 0.0 0.0 0.00 1.48 1.48 93 1014.8
20260507021501 53 26 0.0 0.0 0.00 1.48 1.48 93 1014.8
20260507020105 53 26 0.0 0.0 0.00 1.48 1.48 93 1015.0
20260507014602 53 34 0.0 0.0 0.00 1.48 1.48 93 1014.5
20260507013100 53 28 0.0 2.0 0.00 1.48 1.48 93 1014.4
20260507011601 53 28 0.0 0.0 0.00 1.48 1.48 94 1014.0
20260507010059 53 12 0.0 0.0 0.00 1.48 1.48 93 1013.7
20260507004558 53 355 0.0 0.0 0.00 1.48 1.48 93 1014.6
20260507003115 54 12 0.0 0.0 0.00 1.48 1.48 93 1014.5
20260507001614 54 12 0.0 0.0 0.00 1.48 1.48 93 1014.6
20260507000057 54 360 0.0 0.0 0.00 1.48 1.48 93 1014.6
20260506234558 54 21 0.0 4.0 0.00 1.48 1.48 93 1014.3
20260506233058 54 19 0.0 0.0 0.00 1.48 1.48 93 1014.7
20260506231605 54 17 0.0 0.0 0.00 1.48 1.48 93 1014.1
20260506230111 54 21 0.0 0.0 0.00 1.48 1.48 93 1014.2
20260506224555 54 21 0.0 0.0 0.00 1.48 1.48 93 1013.8
20260506223057 54 19 0.0 0.0 0.00 1.48 1.48 92 1013.5
20260506221607 54 20 0.0 3.0 0.01 1.48 1.48 93 1012.9
20260506220055 54 38 0.0 0.0 0.01 1.48 1.48 93 1012.8
20260506214654 55 17 0.0 0.0 0.02 1.49 1.48 93 1013.1
20260506213055 55 24 0.0 0.0 0.03 1.49 1.48 93 1013.2
20260506211554 54 5 0.0 0.0 0.04 1.48 1.47 93 1013.9
20260506210057 54 5 0.0 0.0 0.07 1.48 1.47 93 1014.6
20260506204555 54 5 0.0 0.0 0.07 1.47 1.46 92 1014.2
20260506203102 54 5 0.0 0.0 0.06 1.46 1.45 92 1014.0
20260506201550 54 5 0.0 0.0 0.04 1.44 1.43 91 1014.1